BEIDOU-3 M7 (C27)

Last updated on Fri Oct 17 2025 00:03:25 GMT+0000 (Coordinated Universal Time)

1 43107U 18003A 25289.03757740 -.00000052 00000+0 00000+0 0 9992 2 43107 54.5462 310.8215 0002326 90.2780 269.7913 1.86232486 52804
UTC large
Height (km)
Speed (km/s)
/
Latitude / Longitude
Inclination (degrees)
Orbital Period (minutes)
Azimuth
Elevation
Range (km)
Doppler Factor

Next 0 passes for location: London (51.5072 / 0.1276)

Sorry there are no passes over London.